Lid_Strength_Index
5 5 5 7 8 6 8 8 9 9 7 5 5 5 4 4 4 4 3 3 2 2 2 2 1 1 1 1 1 1 0 0
5 5 5 6 5 8 8 11 12 9 9 8 6 5 4 5 4 4 3 3 2 2 2 1 1 1 1 0 1 1 0 0
5 6 7 6 7 7 7 8 10 11 10 5 5 5 5 4 4 3 3 3 2 2 2 1 1 1 1 1 1 1 1 0
7 5 5 5 6 7 9 9 8 9 9 5 4 4 4 4 4 3 3 2 2 2 2 1 1 1 1 1 1 1 0 0
8 7 5 7 6 6 6 7 8 10 8 4 4 4 4 4 4 4 3 3 2 2 2 2 2 1 1 1 1 1 0 0
9 8 6 7 7 6 7 9 8 8 7 6 5 5 5 4 4 4 3 3 2 2 2 2 2 1 1 1 0 0 0 0
7 7 7 7 7 7 7 7 8 7 7 6 5 5 5 4 4 4 4 3 3 3 2 2 2 2 1 1 0 0 0 0
7 7 7 7 7 7 7 6 7 6 7 4 4 4 4 4 4 4 4 3 3 3 2 2 2 2 1 1 1 0 1 1
9 7 7 8 7 7 6 6 6 7 6 4 5 5 5 5 4 4 4 3 3 3 3 2 2 1 2 1 1 1 1 0
8 7 11 7 5 5 6 5 5 5 5 5 5 4 4 3 4 4 4 3 3 2 2 2 1 1 1 1 1 1 1 1
9 9 8 7 6 6 6 6 5 5 4 4 4 4 4 3 3 3 3 3 2 2 2 1 1 1 1 1 1 1 1 1
8 10 11 7 5 4 4 8 4 4 4 5 5 8 6 3 3 3 2 2 2 1 1 2 1 1 1 1 1 1 1 0
8 9 7 5 4 4 9 11 5 4 4 4 5 4 3 3 3 2 2 2 1 1 2 1 1 1 1 1 1 1 0 -0
7 9 10 4 4 7 6 5 5 4 4 4 4 4 3 3 3 2 2 2 1 2 1 1 0 1 1 1 0 -1 -0 -0
7 7 4 3 5 4 3 4 4 4 3 3 4 4 3 3 3 3 2 2 1 1 1 1 1 0 1 0 -0 0 0 0
6 5 5 4 4 3 3 3 3 3 3 3 3 3 3 3 3 3 2 2 2 1 2 1 1 1 0 -0 0 0 1 0
6 6 4 4 4 3 3 3 3 3 3 3 3 3 3 3 3 2 2 2 1 2 1 2 1 1 1 0 0 1 1 1
6 4 5 4 3 3 3 3 3 3 3 2 2 3 3 3 2 2 2 2 2 2 2 2 1 1 0 -0 -0 0 1 1
5 3 3 3 3 2 3 3 3 3 2 3 2 2 2 3 2 3 2 2 2 2 1 1 1 1 0 -0 -0 0 1 1